◎C/1996 J1の軌道です

  佐治天文台の織部隆明氏は,11月13日と14日にこの彗星の観測に成功しました.

両夜の彗星のCCD全光度は19.0等,コマ視直径は 15",尾は見られないとのことで

す.なお,A核は観測できなかったとのことです.



    C/1996 J1-B (Evans-Drinkwater) 

Epoch 1996 Dec. 23.0 TT = JDT 2450440.5  

T 1996 Dec. 30.41827 TT                                 Nakano

q   1.2975716            (2000.0)            P               Q

z  -0.0006995      Peri.   14.84144     +0.37153657     +0.84749299

 +/-0.0000020      Node   278.16709     -0.88606041     +0.20174884

e   1.0009076      Incl.   22.51861     -0.27723190     +0.49097153

From 495 observations 1996 May 12-1998 Nov. 14, mean residual 0".66.

   (1/a)org.= -0.000011, (1/a)fut.= +0.000559, L= 8.

Residuals in seconds of arc 

1996/                     970623 402  0.7-  0.7+    971004 861  0.9+  0.5+  

960510 413 (0.2+  2.0+)   970623 402  0.3-  0.7+    971004 861  0.1+  1.3+  

960512 413  0.2+  0.3-    970629 897  0.4-  0.3+    971008 118  0.2+  0.5+  

960512 413  0.2+  0.5-    970629 897  0.1-  0.1+    971008 118  0.1-  0.2+  

960512 422  0.4-  0.0     970629 897  0.0   0.0     971008 118  0.5+  0.1-  

960512 422  0.6+  0.5-    970703 118  0.2-  0.3+    971012 897  0.0   0.2-  

960512 422  0.8+  0.2-    970703 118  0.1-  0.8+    971012 897  0.3+  0.1-  

960513 709  0.2+  0.3-    970703 867  0.3+  0.3+    971012 897  0.1-  0.2+  

960513 709  0.2+  0.3-    970703 867  0.9+  0.5+    971012 402  0.3+  0.1+  

960513 709  0.6+  0.5+    970703 867  0.8+  0.1+    971012 402  0.2+  0.2+  

960513 709  0.6+  0.2+    970704 355  0.6+  0.4-    971012 402  0.2+  0.1+  

960513 709  0.4+  0.5+    970704 355  0.1-  0.6-    971012 867  0.1-  0.1+  

960513 709  0.1+  0.1+    970704 355  0.7+  0.1+    971012 867  0.2+  0.1+  

960513 709  0.2+  0.1-    970704 897  0.1-  0.2+    971013 118  0.2+  0.5+  

960513 709  0.4+  0.2+    970704 897  0.4-  0.6+    971013 118  0.1+  0.5+  

960513 709  0.1+  0.2-    970704 897  0.3+  0.5+    971013 118  0.2-  0.7+  

960513 709  0.4+  0.1+    970704 867  0.6+  0.6+    971016 118  0.6-  0.2+  

960513 709  0.3+  0.2+    970704 867  0.7+  0.3+    971016 118  0.7-  0.4+  

960513 896  0.9+  0.4-    970705 360  0.6+  0.5+    971016 118  0.5-  0.5+  

960513 896  0.9+  0.6+    970705 360  0.8+  0.6+    971017 118  0.3-  0.7+  

960513 896  0.7+  0.9+    970711 696  1.4+  0.7+    971017 118  0.4-  0.5+  

960513 900  1.0+  0.1+    970711 696  0.9+  0.3-    971018 108 (1.2+  2.0-) 

960513 422  0.7+  0.1+    970713 616  1.4+  1.9-    971018 108 (2.6-  1.7-) 

960513 422  0.8+  0.3-    970713 616  1.3+  0.7-    971018 108  0.5+  1.3-  

960513 867  1.3+  0.2+    970713 616  0.2+  0.0     971018 118  0.2-  0.6+  

960513 900 (2.3+  0.2-)   970718 367  0.5+  0.1-    971018 118  0.1-  0.4+  

960513 867  0.8+  0.3+    970718 367  0.2+  0.0     971019 596  0.1-  0.2+  

960513 867  1.0+  0.3+    970718 367  0.1+  0.2+    971019 596  0.5-  0.1+  

960513 900  0.4+  0.2-    970719 367  0.7+  0.0     971019 596  1.1-  0.6+  

960513 353  0.4+  0.6+    970719 367  1.0+  0.1+    971019 596  0.3-  0.6+  

960513 867  0.7+  0.3+    970719 367  0.7+  0.6+    971020 118  0.1-  0.2+  

960513 353  0.7+  0.5+    970728 118  0.6+  0.1-    971020 118  0.2-  0.3+  

960513 353  1.2+  0.4+    970728 118  0.2+  0.1-    971020 118  0.1-  0.1+  

960513 372  0.6-  0.3-    970728 118  0.6+  0.1-    971023 613  0.9-  1.1+  

960513 360  0.1+  0.3-    970731 629  0.2+  0.6+    971025 355  0.2-  0.3+  

960513 367  0.5+  1.0-    970731 629  1.1+  0.1+    971025 355  0.5-  0.0   

960513 367  0.5+  0.6-    970731 629  0.8+  0.2-    971025 355  0.7-  0.1-  

960513 367  0.7+  0.8-    970801 367  0.5+  0.3-    971026 897  0.1-  0.0   

960514 817  0.8+  0.1+    970801 367  0.6+  0.1-    971026 897  0.0   0.0   

960514 817  0.3+  0.4+    970801 367  1.0+  0.1+    971031 613 (2.4-  1.3+) 

960514 897  0.9+  1.1-    970802 861  0.3+  0.3+    971031 613  1.4-  1.6-  

960514 897  0.1+  0.5+    970802 861  0.8+  0.4-    971101 504  0.3-  0.5+  

960514 897  0.4-  0.6+    970802 861  0.2+  0.4-    971101 504  0.3-  0.5+  

960515 709  0.4-  0.3+    970804 046  0.4+  0.4-    971101 504  0.3-  0.3+  

960515 709  0.5-  0.2+    970804 046  0.3+  0.2-    971101 504  0.1-  0.3+  

960515 709  0.9-  0.3+    970804 046  0.5+  0.3-    971106 897  0.2-  0.7+  

960515 709  0.7-  0.5-    970807 118  0.1+  0.6-    971106 897  0.6-  0.8+  

960515 709  0.5-  0.2+    970807 118  0.3+  0.4-    971106 897  0.0   0.5+  

960515 709  0.5-  0.0     970807 118  0.1+  0.7-    971107 403  0.1-  0.8+  

960515 709  0.9-  0.1-    970807 118  0.2-  0.3-    971107 403  0.6-  0.3+  

960515 709  0.9-  0.1-    970807 118  0.2-  0.5-    971108 758  1.4-  0.6+  

960515 896  0.3+  0.2+    970807 118  0.0   0.4-    971108 758  0.1-  0.3+  

960515 896  0.4+  0.2+    970808 616  1.6+  0.7-    971108 900  0.5-  0.7+  

960515 897  1.8-  0.2-    970808 616  0.1+  0.7-    971108 900  0.2-  0.5+  

960515 896  0.2+  0.1+    970808 616  0.4+  0.3-    971109 758  0.8-  0.4+  

960515 896  0.1+  0.1-    970809 118  0.2+  0.6-    971109 758  0.0   0.4+  

960515 385 (0.0   2.9+)   970809 118  0.4+  0.9-    971109 403  0.8-  0.5+  

960515 385  0.5-  1.9+    970809 118  0.2+  0.8-    971109 403  0.3-  0.2+  

960515 360  0.1-  0.4-    970809 118  0.3+  0.7-    971110 758  0.5-  0.8+  

960515 365  0.4-  1.5+    970809 897  0.2-  0.5-    971110 758  0.2-  1.0+  

960515 360  0.0   0.5-    970809 897  0.0   0.5-    971122 504  1.0-  0.2-  

960515 360  0.0   0.4-    970809 897  0.1+  0.8-    971122 504  0.9-  0.2+  

960515 365  0.2-  0.4+    970810 046 (2.5+  0.0 )   971122 504  1.2-  0.5+  

960515 965  0.7-  0.7+    970810 046 (2.2+  0.1-)   971122 504  0.9-  0.2+  

960515 965  0.4-  0.0     970810 046 (2.1+  0.0 )   971122 504  1.4-  0.1-  

960515 965  0.4-  1.9+    970811 402 (2.2+  1.2-)   971122 504  0.9-  0.2-  

960515 965  0.8-  0.8+    970811 402 (2.0+  1.2-)   971123 360  1.0-  0.0   

960515 965  0.2-  0.6+    970811 402  1.8+  1.4-    971123 360  0.9-  0.1-  

960516 709  1.8+  1.3+    970813 118  1.9+  0.5-    971123 403  0.8-  0.5-  

960516 709  1.4+  1.3+    970813 118  1.6+  0.4-    971123 403 (2.1-  0.3-) 

960516 709  1.3+  1.2+    970813 118  1.6+  0.6-    971124 403  1.8-  0.1-  

960516 709  1.4+  1.6+    970813 372  1.1+  0.7+    971124 403  0.9-  0.0   

960516 709  1.5+  1.4+    970813 372  0.1+  0.5+    971124 403  1.2-  1.0+  

960516 118  0.4-  0.4-    970816 118  1.1+  1.1-    971124 897  1.0-  0.0   

960516 118  0.1+  0.8-    970816 367  1.4+  0.9-    971124 897  0.5-  0.3-  

960516 046  0.0   0.2-    970816 367  0.6+  0.7-    971124 897  1.1-  0.2-  

960516 046  0.4+  0.2-    970816 367  1.1+  0.2-    971124 352  1.2-  0.2-  

960516 046  0.2+  0.1+    970819 118  0.7+  0.3-    971124 352  1.1-  0.1+  

960516 120  0.7+  1.3+    970820 118  0.4+  0.6-    971124 352  1.0-  0.4-  

960516 120  0.9+  0.9+    970821 118  1.0+  0.5-    971124 867  1.4-  0.3-  

960516 104  0.3-  0.7-    970821 118  1.2+  0.9-    971124 867  1.4-  0.4-  

960516 120  0.9+  0.6+    970821 118  0.8+  0.6+    971124 867  1.6-  0.5-  

960516 104  0.3+  0.7-    970821 118  0.9+  0.8+    971127 758 (3.5-  2.2+) 

960516 104  0.9+  0.3-    970822 118  0.7+  0.8+    971127 758 (2.1-  0.3-) 

960516 104  1.4+  0.3-    970823 900  0.5+  0.1+    971127 403  1.1-  1.8-  

960516 540  0.2+  1.0+    970823 900  0.5+  0.0     971127 403  0.8+  0.7+  

960516 540  0.1+  0.9+    970825 118  0.4+  0.2+    971130 700  0.7-  0.6-  

960517 709  0.0   0.0     970825 118  0.4+  0.1+    971130 700  1.4-  0.1+  

960517 709  0.2-  0.3+    970825 118  0.2+  0.2+    971130 700  0.4-  0.2-  

960517 709  0.0   0.0     970827 629  0.0   0.6+    971204 372  1.1-  0.1+  

960517 709  0.2-  0.0     970827 629  0.3-  0.0     971205 372 (2.0-  0.1-) 

960517 709  0.3-  0.2+    970827 629  0.4+  0.5-    971206 118  1.5-  0.7-  

960517 709  0.1-  0.1-    970827 372  0.1+  0.7+    971206 118  1.6-  0.6-  

960517 709  0.1+  0.1-    970828 118  0.2+  0.3+    971206 118  1.5-  0.8-  

960518 046  0.2+  0.1-    970828 118  0.2+  0.4+    971207 108 (2.4-  0.6-) 

960518 046  0.9-  0.1-    970828 867  0.8+  0.3+    971207 108  1.6-  1.5-  

960518 046  0.3+  0.1+    970828 867  0.8+  0.6+    971207 108 (1.6-  4.7-) 

960521 118  0.0   0.5+    970828 867  0.6+  0.5+    971207 108 (0.6-  2.5-) 

960521 118  0.6+  0.0     970828 372  0.9+  0.3+    971218 372  1.4-  0.7+  

960521 108 (0.9- 14.4-)   970828 360  0.5+  0.3+    971219 372 (2.1-  0.6+) 

960522 709  0.8-  1.8-    970828 360  0.3+  0.3+    971221 897  0.7-  0.2+  

960522 709  1.0-  1.3-    970831 557  0.4+  0.2+    971221 897  1.0-  0.3-  

960522 709  0.5-  0.9-    970831 557  0.4+  0.1+    971224 360  1.2-  0.7-  

960522 709  0.7-  0.9-    970903 897  0.6+  0.2+    971224 360  0.8-  1.0-  

960522 360  0.3-  0.1+    970903 118  0.1+  0.1+    971225 118  0.7-  0.4-  

960522 360  0.7-  0.2-    970903 118  0.3+  0.4+    971225 118  0.8-  0.2-  

960522 360  0.4-  0.1-    970904 118  0.1+  0.2+    971225 118  0.7-  0.2-  

960522 046  0.6+  0.2-    970904 900  0.0   0.2+    971231 867 (1.9-  2.1-) 

960522 046  0.7+  0.3-    970904 900  0.1-  0.4+    971231 867  1.9-  1.0-  

960522 046  0.6-  0.3-    970905 118  0.4+  0.3-    1998/                   

960522 472  0.7+  0.1+    970905 118  0.2+  0.4-    980111 046  0.5-  0.5-  

960522 472  0.9+  1.1+    970905 118  0.2+  0.3-    980111 046  0.6-  0.5-  

960523 897 (2.3-  1.5+)   970908 118  0.3+  0.2+    980111 046  0.6-  0.4-  

960523 897  0.8-  0.3-    970908 118  0.3+  0.2-    980115 118  1.1-  0.5-  

960523 897  0.1-  1.3+    970908 118  0.0   0.0     980115 118  0.9-  0.5-  

960524 372  0.1-  1.1+    970908 118  0.2+  0.1-    980115 118  1.0-  0.4-  

960524 372  1.2+  0.5-    970909 402  0.2+  0.2+    980116 372 (2.0-  0.2+) 

960528 413  1.4-  0.2-    970909 402  0.3+  0.3+    980116 403  1.5-  1.5-  

960528 413  1.3-  0.1-    970909 402  0.3+  0.3+    980116 403  1.9-  1.3-  

